Weather in Korsakovo-1

Russia / Khabarovsk Krai     48°20′46″N   134°57′16″E
temp.,
°C
wind,
m/s
gust,
m/s
humid.,
%
clouds,
%
prec.,
mm/h
press.,
hPa
HPBL,
m
29 november, mon
mon2901:00−7ssw2493100 0.0 102073
04:00−6ssw2496100 0.1 1018125
07:00−6sw2396100 1.8 1016153
10:00−5wsw2496100 3.6 1016222
13:00−5w498458 0.9 1017655
16:00−7w389056 0.9 1020527
19:00−14sw239750 0.0 102333
22:00−16sw229666 0.0 102422
30 november, tue
tue3001:00−15s2394100 0.0 102458
04:00−16ssw3493100 0.0 102491
07:00−15ssw2389100 0.0 102361
10:00−13ssw1286100 0.0 1022114
13:00−10sw0173100 0.0 1019283
16:00−10ne1180100 0.0 1017229
19:00−12nne2393100 0.0 1015127
22:00−13n3691100 0.2 1011227
1 december, wed
wed101:00−13n51395100 1.8 1006454
04:00−11n71994100 6.9 1000802
07:00−10n91894100 4.8 9971060
10:00−11n71795100 8.1 9961223
13:00−9nnw61494100 3.1 9941330
16:00−9nw51095100 5.9 994933
19:00−10wnw41095100 1.9 994495
22:00−10wnw4994100 2.7 994423
2 december, thu
thu201:00−12w3793100 0.1 996289
04:00−15wsw3695100 0.2 997178
07:00−16sw359491 0.1 999143
10:00−18ssw36935 0.1 1001143
13:00−15ssw478675 0.0 1000352
16:00−14sw31091100 0.0 1001353
19:00−14s239784 0.1 100168
22:00−12sse229791 0.6 100178
3 december, fri
fri301:00−12s1197100 0.3 100116
04:00−12w1197100 0.5 100121
07:00−14wnw229898 0.3 100325
10:00−14wsw239446 0.3 100568
13:00−13sw348316 0.0 1007307
16:00−15sw369371 0.0 1009332
19:00−18ssw3499100 0.1 101281
22:00−22sw2210082 0.1 101432